sat.trackr.live / text

‹ back to catalog

STARLINK-11655 [DTC]

NORAD 63675 · 2025-085M

PAYLOAD ACTIVE UNKNOWN

§ Identity

Operator
Country
US
Launch date
2025-04-28
Launch site
AFETR
Launch vehicle
Mass (kg)
RCS (m²)

Purposes: comms

External: N2YO · Heavens-Above · Gunter

§ Orbital elements

Epoch: 2026-09-20T18:14:06.430560Z

Period
91.67 min
Inclination
43.0013°
Eccentricity
0.0002063
Mean motion
15.70863886 rev/d
Perigee alt
355.0 km
Apogee alt
357.8 km
Semi-major
6,734.6 km
B*
1.4705e-3
RAAN
182.3869°
Arg perigee
286.2113°
Mean anomaly
73.8527°
Rev number
8,092

§ Raw data

STARLINK-11655 [DTC]1 63675U 25085M   26263.75979665  .00192870  00000+0  14705-2 0  99952 63675  43.0013 182.3869 0002063 286.2113  73.8527 15.70863886 80924

JSON: /api/v1/satellites/63675 · /tle

For live sub-satellite position, see the globe view (requires WebGL).

§ Visibility from observer

Set your observer location to see the next 7 days of passes ≥ 10°. The values pass through the URL so the page stays shareable.

No JS? Fill the form by hand. The geolocation button needs JavaScript.